This is the latest recevied weather packets stored in our database for station/object SP3SWJ-13. If no packets are shown the sender has not sent any weather packets the latest 10 day(s).
| Time | Temp. | Humidity | Pressure | Rain* | Wind** | Luminosity | Snow |
|---|---|---|---|---|---|---|---|
| 1777898754 | 23.89° C | 40% | 1002.9 hPa | - | - | 324 W/m² | - |
| 1777898453 | 23.89° C | 40% | 1002.9 hPa | - | - | 328 W/m² | - |
| 1777898153 | 24.44° C | 40% | 1002.9 hPa | - | - | 241 W/m² | - |
| 1777897851 | 24.44° C | 38% | 1002.9 hPa | - | - | 492 W/m² | - |
| 1777897551 | 24.44° C | 39% | 1003 hPa | - | - | 637 W/m² | - |
| 1777897250 | 24.44° C | 39% | 1003 hPa | - | - | 616 W/m² | - |
| 1777896949 | 24.44° C | 38% | 1003 hPa | - | - | 659 W/m² | - |
| 1777896648 | 24.44° C | 38% | 1003 hPa | - | - | 640 W/m² | - |
| 1777896347 | 23.89° C | 39% | 1003.1 hPa | - | - | 645 W/m² | - |
| 1777896047 | 23.89° C | 38% | 1003.1 hPa | - | - | 371 W/m² | - |
| 1777895745 | 24.44° C | 39% | 1003.1 hPa | - | - | 357 W/m² | - |
| 1777895445 | 25° C | 37% | 1003.2 hPa | - | - | 656 W/m² | - |
| 1777895144 | 24.44° C | 39% | 1003.1 hPa | - | - | 727 W/m² | - |
| 1777894843 | 25° C | 40% | 1003.1 hPa | - | - | 674 W/m² | - |
| 1777894542 | 24.44° C | 39% | 1003.1 hPa | - | - | 704 W/m² | - |
| 1777894242 | 23.89° C | 39% | 1003.1 hPa | - | - | 689 W/m² | - |
| 1777893941 | 23.33° C | 40% | 1003.2 hPa | - | - | 691 W/m² | - |
| 1777893640 | 23.89° C | 39% | 1003.2 hPa | - | - | 702 W/m² | - |
| 1777893339 | 23.33° C | 41% | 1003.2 hPa | - | - | 699 W/m² | - |
| 1777893038 | 23.89° C | 40% | 1003.3 hPa | - | - | 698 W/m² | - |
| 1777892737 | 23.33° C | 40% | 1003.3 hPa | - | - | 630 W/m² | - |
| 1777892437 | 22.78° C | 41% | 1003.4 hPa | - | - | 510 W/m² | - |
| 1777892135 | 22.78° C | 42% | 1003.4 hPa | - | - | 456 W/m² | - |
| 1777891834 | 22.78° C | 40% | 1003.4 hPa | - | - | 379 W/m² | - |
| 1777891533 | 22.78° C | 41% | 1003.4 hPa | - | - | 477 W/m² | - |
* Rain since midnight (hover to see other rain measurements)
** Current wind speed in m/s (hover to see current wind gust speed)